Regional Weather Roundup
Issued by NWS

Home | Current Version | Previous Version | Graphics & Text | Print | Product List | Glossary On
Versions: 1 2 3 4 5 6 7 8 9 10 11 12 13 14 15 16 17 18 19 20 21 22 23 24 25 26 27 28 29 30 31 32 33 34 35 36 37 38 39 40 41 42 43 44 45 46
000
ASUS45 KBOU 181910
RWRCO

WEATHER ROUNDUP FOR COLORADO
NATIONAL WEATHER SERVICE DENVER/BOULDER CO
100 PM MDT WED APR 18 2018

NOTE: "FAIR" INDICATES FEW OR NO CLOUDS BELOW 12000 FEET WITH NO
SIGNIFICANT WEATHER AND/OR OBSTRUCTIONS TO VISIBILITY.

COZ001>005-013-030-031-182000-
...NORTHWEST COLORADO...

CITY           SKY/WX    TMP DP  RH WIND       PRES   REMARKS
CRAIG          FAIR      42  18  37 E10       30.29F
HAYDEN         FAIR      39  11  31 NE8       30.31F
MEEKER         FAIR      44  11  26 NE7       30.26F
RANGELY        FAIR      48  10  21 CALM      30.25F
RABBIT EARS PA FAIR      27  10  50 CALM      30.28S
STEAMBOAT SPGS FAIR      36  12  37 CALM      30.29F
WALDEN         FAIR      37   3  23 S5        30.27F
$$

COZ006>008-011-182000-
...WEST CENTRAL VALLEYS...

CITY           SKY/WX    TMP DP  RH WIND       PRES   REMARKS
GRAND JUNCTION FAIR      51  12  21 CALM      30.23F
MONTROSE       FAIR      49   6  17 VRB5      30.24F
EAGLE          FAIR      42   0  17 VRB5      30.29F
RIFLE          FAIR      48   8  19 VRB7      30.26F
DELTA          FAIR      54  -5   9 CALM      30.23F
NUCLA          FAIR      54   0  11 SW3       30.24F
$$

COZ017>023-064>068-182000-
...SOUTHWEST COLORADO...

CITY           SKY/WX    TMP DP  RH WIND       PRES   REMARKS
DURANGO        FAIR      51  -5   9 MISG      30.24F
CORTEZ         FAIR      53  -1  11 SW14      30.23F
PAGOSA SPRINGS FAIR      49  -9   9 SW6       30.24F
TELLURIDE      FAIR      46  -2  13 W9        30.23F
WOLF CREEK PAS FAIR      32   0  25 SW12G17   30.36R WCI  23
$$

COZ009-010-012-014-032>034-037-058>063-182000-
...CENTRAL COLORADO...

CITY           SKY/WX    TMP DP  RH WIND       PRES   REMARKS
ASPEN          FAIR      42   2  18 VRB6      30.23F
BUENA VISTA    FAIR      43  -6  12 CALM      30.24F
COPPER MTN     NOT AVBL
BERTHOUD PASS  FAIR      14   5  67 W12G18    30.28S WCI   0
COTTONWOOD PAS FAIR      43  -2  15 E5        30.27F
GUNNISON       FAIR      44  -2  14 E5        30.23F
GRANBY         FAIR      38   9  30 W7        30.28F
KREMMLING      FAIR      48   5  17 SE9       30.28F
LEADVILLE      FAIR      33  -1  23 N7        30.26F WCI  27
SALIDA         FAIR      50  -4  11 CALM      30.31F
SUNLIGHT       FAIR      27  14  59 CALM      30.32S
WILKERSON PASS FAIR      34 -11  14 SW6       30.31S WCI  29
$$

COZ069>075-182000-
...SAN LUIS VALLEY/SANGRE DE CRISTO MOUNTAINS...

CITY           SKY/WX    TMP DP  RH WIND       PRES   REMARKS
ALAMOSA        FAIR      44  -6  12 VRB7      30.26F
DEL NORTE      FAIR      44   6  21 E8G20     30.26S
LA VETA PASS   FAIR      41  -4  15 W3        30.40S
SAGUACHE       NOT AVBL
$$

COZ035-036-038>040-182000-
...NORTHERN COLORADO FRONT RANGE...

CITY           SKY/WX    TMP DP  RH WIND       PRES   REMARKS
DENVER INTL AP FAIR      50  10  20 NE9       30.24F
AURORA         MOSUNNY   50   6  16 N6        30.25F
FRONT RANGE AP NOT AVBL
ERIE MUNI ARPT FAIR      53   3  13 E5        30.29F
BOULDER MUN AP FAIR      52  10  19 E7        30.22F
CENTENNIAL     FAIR      49   7  18 VRB5      30.24F
BROOMFIELD     MOSUNNY   52   7  16 E10       30.24F
FORT COLLINS   NOT AVBL
LONGMONT       FAIR      56   8  14 SW3       30.24F
$$

COZ041-046-047-076>085-087-088-182000-
...PIKES PEAK/PALMER DIVIDE AND SOUTHERN FOOTHILLS...

CITY           SKY/WX    TMP DP  RH WIND       PRES   REMARKS
COLO. SPRINGS  FAIR      51   1  13 S7        30.25S
A. F. ACADEMY  FAIR      49  -4  11 SW6       30.23F
SCHRIEVER AFB  NOT AVBL
CHEYENNE MTN   FAIR      46  -3  13 S8G25     30.20R
ELLICOTT         N/A    N/A N/A N/A VRB7G16   30.25S
FALCON         FAIR      50  -4  11 N5        30.26S
FORT CARSON    FAIR      53  -4   9 S9        30.23F
LIMON          FAIR      50   8  18 NW21G35   30.24F
MONUMENT HILL  FAIR      43   0  16 CALM      30.27F
CANON CITY     FAIR      57   1  10 NE5       30.21F
WALSENBURG     NOT AVBL
TRINIDAD       FAIR      53  -2  10 E7        30.26F
$$

COZ042>045-048>051-090-091-182000-
...NORTHEAST COLORADO...

CITY           SKY/WX    TMP DP  RH WIND       PRES   REMARKS
GREELEY ARPT   FAIR      54  11  18 N21       30.23F
AKRON          FAIR      54  19  25 NW29G45   30.22F
BURLINGTON     FAIR      55  19  24 N21G44    30.21F
WRAY           PTSUNNY   55  23  28 N24G37    30.21S
YUMA           FAIR      52  18  25 NW24G35   30.22S
STERLING       FAIR      54  21  28 N24G36    30.21F
HOLYOKE        FAIR      55  25  30 NW23G33   30.20S
FORT MORGAN    FAIR      56   8  14 NW21G32   30.24F
$$

COZ086-089-092>099-182000-
...SOUTHEAST COLORADO...

CITY           SKY/WX    TMP DP  RH WIND       PRES   REMARKS
PUEBLO         FAIR      58   1  10 SE6       30.24F
LA JUNTA       FAIR      60   2   9 N15G28    30.25F
LAMAR          FAIR      61   8  12 N25G37    30.22F
SPRINGFIELD      N/A     59   7  12 NW24G38   30.24S
$$




USA.gov is the U.S. government's official web portal to all federal, state and local government web resources and services.